This is the latest recevied weather packets stored in our database for station/object p43g-13. If no packets are shown the sender has not sent any weather packets the latest 10 day(s).
| Time | Temp. | Humidity | Pressure | Rain* | Wind** | Luminosity | Snow |
|---|---|---|---|---|---|---|---|
| 1787789440 | 28.89° C | 82% | 1011.5 hPa | 0 mm | - | 0 W/m² | - |
| 1787789139 | 28.89° C | 83% | 1011.4 hPa | 0 mm | - | 0 W/m² | - |
| 1787788840 | 28.89° C | 83% | 1011.4 hPa | 0 mm | - | 0 W/m² | - |
| 1787788540 | 28.89° C | 83% | 1011.3 hPa | 0 mm | - | 0 W/m² | - |
| 1787788240 | 28.89° C | 83% | 1011.2 hPa | 0 mm | - | 0 W/m² | - |
| 1787787940 | 28.89° C | 83% | 1011.1 hPa | 0 mm | - | 0 W/m² | - |
| 1787787640 | 29.44° C | 83% | 1010.9 hPa | 0 mm | - | 0 W/m² | - |
| 1787787340 | 29.44° C | 82% | 1010.9 hPa | 0 mm | - | 0 W/m² | - |
| 1787787040 | 29.44° C | 82% | 1011.3 hPa | 0 mm | - | 0 W/m² | - |
| 1787786740 | 29.44° C | 82% | 1010.9 hPa | 0 mm | - | 0 W/m² | - |
| 1787786440 | 29.44° C | 82% | 1010.8 hPa | 0 mm | - | 0 W/m² | - |
| 1787786140 | 29.44° C | 82% | 1010.9 hPa | 0 mm | - | 0 W/m² | - |
| 1787785841 | 29.44° C | 82% | 1010.8 hPa | 0 mm | - | 0 W/m² | - |
| 1787785540 | 29.44° C | 82% | 1010.8 hPa | 0 mm | - | 0 W/m² | - |
| 1787785240 | 29.44° C | 82% | 1010.7 hPa | 0 mm | - | 0 W/m² | - |
| 1787784940 | 29.44° C | 82% | 1010.7 hPa | 0 mm | - | 3 W/m² | - |
| 1787784640 | 29.44° C | 81% | 1010.6 hPa | 0 mm | - | 5 W/m² | - |
| 1787784340 | 29.44° C | 81% | 1010.7 hPa | 0 mm | - | 8 W/m² | - |
| 1787784039 | 29.44° C | 81% | 1010.5 hPa | 0 mm | - | 12 W/m² | - |
| 1787783740 | 29.44° C | 81% | 1010.6 hPa | 0 mm | - | 18 W/m² | - |
| 1787783440 | 29.44° C | 81% | 1010.7 hPa | 0 mm | - | 23 W/m² | - |
| 1787783140 | 29.44° C | 81% | 1010.6 hPa | 0 mm | - | 32 W/m² | - |
| 1787782840 | 29.44° C | 81% | 1010.4 hPa | 0 mm | - | 40 W/m² | - |
| 1787782540 | 29.44° C | 80% | 1010.5 hPa | 0 mm | - | 46 W/m² | - |
| 1787782240 | 30° C | 80% | 1010.4 hPa | 0 mm | - | 54 W/m² | - |
* Rain latest hour (hover to see other rain measurements)
** Current wind speed in m/s (hover to see current wind gust speed)